COSMOS 1375 DEB, 16378

Orbit data source: Space-Track

COSMOS 1375 DEB, 16378 is space debris in LEO originally from a launch on Sun, 06 Jun 1982 UTC launched from the Plesetsk Missile And Space Complex (PKMTR). Debris objects in space refer to the collection of defunct objects orbiting the Earth. Examples of debris include non-operational satellites, rocket bodies, and fragments generated from explosions, collisions, or faulty payload assembly.

Loading next visibility...
Identifier
16378, 1982-055S
Orbit
LEO
Country
Flag of CISCIS
Related business
Manufacturer
Unknown
Mission
Spacecraft
Bus & Motor
Unknown
Mass
Unknown
Launch date (UTC)
1982-06-06 (44 years ago)
Launch vehicle
Unknown
Launch site
Plesetsk Missile And Space Complex (PKMTR)
Object type
Payload
Rocket body
Debris
Shape & HBR
Unknown shape, 0.1 m
Radar Cross Section
Medium (>0.1 m² and <1 m²)

Expand to show TLE details & history
Last TLE update: 2 days ago

TLE from 2 days ago
0 COSMOS 1375 DEB
1 16378U 82055S   26171.21104463  .00000045  00000-0  11840-3 0  9999
2 16378  65.8327  84.5682 0031571 181.8995 255.1523 13.81687024 48745
Epoch: 2026-06-20T05:03Z
TLE epoch observation values (Epoch: 2026-06-20T05:03:54.256Z)
Latitude
62.72422°
Longitude
160.13509°
Altitude
973.77 km
Speed
7.368 km/s
True Right ascension
09h 38m 09s
True Declination
62° 35' 17"
Sunlit
Object was in daylight at epoch
Visualization orbit readout
Latitude
Unknown
Longitude
Unknown
Altitude
Unknown
Speed
Unknown
Apparent Right ascension
Unknown
Apparent Declination
Unknown
Sunlit
N/A
Visualization observer readout
Local Sidereal Time
02:00:09
Azimuth
Unknown
Elevation
Unknown
Doppler factor
Unknown
Orbital elements
Apogee altitude
979.577 km
Perigee altitude
933.266 km
Semi-major axis
7,334.559 km
Eccentricity
0.00316
Inclination
65.8327°
RAAN
84.5682°
Arg. of periapsis
181.8995°
True anomaly
254.80296°
Mean anomaly
255.1523°
Eccentric anomaly
254.97759°
Mean motion
3.45527 °/min
Orbital period
104.19 mins
BSTAR
0.0001184
Loading maneuver chart data...
Computing Atmospheric mass density...
Loading historical data...
Loading historical data...
Loading historical data...
Loading historical data...
Loading historical data...
Loading historical data...
Loading historical data...

Documentation

Showing up to 5 results
|